GFSGBSN_con_3kmhel_018.txt.gz
Helicity
92 91 98 99 87 88 80 61 50 55 60 51 73 40 37 29 24 36 51 39 30 8 -9 3 30 28 -7 13 5 55 36 48 50 2 -52 -23 -2 26 8 -4 -39 25 48 31 -15 -44 -8
90 112 108 107 99 88 90 79 66 59 64 49 63 43 32 40 36 42 45 33 28 2 -1 9 24 36 -2 17 -2 10 9 34 -3 -24 -30 -5 24 42 46 11 60 47 43 5 -47 -19 -15
135 120 117 114 113 92 93 98 81 66 55 53 55 43 38 47 46 47 35 27 10 -1 -5 3 1 16 -12 -19 3 19 23 -14 33 58 16 23 29 32 76 40 24 15 -12 13 15 13 -8
153 132 120 130 123 103 97 101 89 68 48 46 49 45 43 51 53 34 28 20 4 -12 -10 -14 -7 -9 10 9 32 75 78 26 11 25 23 21 44 66 78 36 35 -9 -7 11 35 26 20
154 150 123 108 130 110 108 104 91 69 43 41 44 47 38 51 39 18 22 16 10 -12 -17 -23 -21 -9 11 17 22 53 16 10 21 1 10 21 16 27 13 60 28 -9 -5 23 58 77 28
141 172 130 148 115 116 113 102 94 68 46 39 43 39 41 45 24 15 29 8 0 -14 -26 4 16 12 7 13 39 17 -16 6 31 6 20 51 48 18 24 9 -13 0 28 1 36 55 -12
98 165 162 146 120 119 106 99 98 69 48 40 40 42 32 31 22 53 24 -7 -11 -10 -27 -17 23 59 61 54 28 -2 11 17 23 23 36 31 54 34 12 32 66 39 13 30 23 45 13
92 110 163 133 147 110 105 100 98 73 50 45 43 36 29 21 37 45 -13 -32 -46 -7 -12 27 31 24 36 55 53 42 29 50 46 21 71 44 39 46 50 33 22 20 35 38 36 20 40
82 104 133 156 132 110 107 104 103 80 58 45 39 27 33 35 47 -9 -55 -33 -17 26 18 -2 8 12 28 24 53 51 51 36 39 74 105 38 57 51 27 35 14 36 34 13 12 58 49
107 93 108 140 118 118 104 110 108 83 60 56 46 28 33 66 -7 -45 -74 -42 19 -3 26 23 7 11 16 54 68 77 64 57 64 8 47 32 56 52 51 49 47 22 41 8 9 11 -5
102 96 111 129 137 118 105 118 112 89 66 64 43 33 44 -6 18 -55 -42 -36 -3 5 26 24 30 27 21 51 67 75 81 56 37 37 41 35 34 53 35 48 41 38 7 19 9 16 36
80 88 109 109 142 88 116 119 113 92 78 70 42 41 13 -52 -66 -47 39 -10 -2 30 62 28 44 13 15 50 103 91 69 55 61 58 35 63 75 69 60 63 20 32 32 54 36 33 6
68 76 113 114 136 109 136 117 116 95 87 75 44 38 -3 -36 -34 9 41 -20 29 21 30 29 28 26 18 31 69 72 47 55 62 75 39 59 64 47 30 24 20 9 -51 -21 -8 -1 3
80 18 88 145 121 75 113 123 124 107 96 74 44 37 -13 -31 43 99 35 9 30 33 33 48 37 7 8 18 32 50 25 32 54 66 14 -3 -20 -1 46 24 -19 -37 -14 -2 13 20 26
122 41 79 149 160 69 91 117 119 124 109 80 53 65 3 -42 89 98 64 11 34 50 25 20 34 5 15 33 39 33 62 40 62 80 22 2 17 51 69 59 60 42 19 95 59 46 4
76 126 141 170 153 52 143 105 119 139 110 70 115 80 -17 12 6 69 116 32 80 43 44 44 13 22 2 -2 13 24 12 56 60 74 86 31 1 51 59 62 92 72 84 34 30 -2 0
82 57 16 86 65 -46 111 135 127 138 100 36 133 133 7 43 60 54 50 60 62 49 43 43 26 29 9 26 31 27 29 67 86 87 85 53 48 41 54 35 35 68 47 59 54 45 31
100 48 43 59 80 -75 134 142 157 137 100 153 196 213 89 113 79 69 76 82 66 45 51 54 65 46 26 44 52 54 49 103 90 88 62 83 73 56 38 59 65 65 34 38 14 17 47
88 55 51 38 62 -17 138 130 171 142 149 308 265 228 172 250 70 93 105 72 69 49 54 51 58 75 68 67 91 84 84 103 74 68 56 67 66 54 33 29 39 22 45 58 79 55 16
42 48 18 1 11 32 209 139 172 117 120 238 295 180 232 191 156 61 82 73 60 63 74 75 55 73 59 60 71 55 70 75 77 65 81 61 60 38 17 42 43 44 42 56 38 46 48
26 37 1 -55 -36 -9 147 149 163 119 125 287 351 200 227 136 60 78 72 68 57 69 93 65 57 43 44 40 53 54 58 53 54 63 67 66 31 27 33 49 49 47 12 43 50 34 66
51 19 -3 -42 -213 83 112 150 158 120 141 286 314 243 266 106 103 81 105 92 60 71 86 63 42 56 51 34 28 45 57 47 49 58 62 67 32 49 29 52 65 51 3 28 39 36 47
29 1 -45 -23 1 196 143 150 130 116 185 313 279 125 175 196 130 106 130 81 79 66 107 113 53 68 69 82 97 113 107 118 78 44 81 75 55 48 40 79 78 49 27 66 86 102 85
24 -35 12 -5 307 242 174 121 111 90 150 259 258 149 191 165 140 112 89 110 66 84 83 102 80 67 85 86 128 156 150 146 124 115 100 70 94 92 67 64 80 105 89 93 52 33 57
-25 37 36 225 211 169 130 106 100 86 111 260 217 224 187 159 102 121 95 117 110 126 138 101 107 84 77 118 90 68 68 63 82 109 110 102 102 98 87 84 92 61 98 89 85 87 93
-40 87 360 205 104 147 114 105 119 81 70 245 228 187 174 114 86 62 93 122 152 141 152 134 144 153 117 98 76 43 25 31 25 52 101 126 121 121 121 74 49 116 122 107 84 73 126
39 217 157 136 163 115 112 128 105 79 41 241 215 195 135 91 85 85 91 135 166 209 182 147 122 95 113 96 87 56 43 70 39 49 51 87 107 102 123 113 98 97 109 84 116 178 118
202 107 157 158 120 106 109 106 88 73 40 246 219 196 158 109 70 142 112 152 179 186 195 171 181 127 117 90 84 70 64 68 68 85 62 73 99 103 132 137 104 92 72 105 138 97 97
142 150 122 99 85 89 94 91 86 71 57 263 237 198 175 102 107 102 132 148 187 173 197 140 157 119 101 131 132 104 106 116 103 78 76 94 100 118 91 129 108 42 62 108 115 111 101

GFSGBSN_con_3kmhel_021.txt.gz
Helicity
133 149 78 87 85 74 70 72 60 53 55 53 50 55 49 36 30 45 57 68 49 29 23 22 29 50 35 8 19 34 51 44 28 -3 5 7 4 10 6 -1 -4 30 16 26 35 12 -6
134 127 121 94 95 87 81 78 61 58 66 58 57 52 48 48 32 46 58 60 37 24 21 25 37 55 10 10 29 32 40 45 21 12 42 7 18 32 40 26 18 4 25 31 8 1 10
82 139 122 84 100 102 96 93 81 73 71 59 63 55 46 49 39 52 61 43 26 22 20 23 36 25 -20 -18 -9 23 15 -8 -17 -43 -33 15 25 40 29 44 43 44 55 -15 -28 -7 -2
52 70 111 104 102 101 105 102 89 82 73 64 60 59 49 48 43 55 57 34 27 19 13 21 16 -8 -22 -15 4 1 26 -18 -6 24 31 42 34 78 87 41 32 50 38 -12 21 27 10
54 65 87 122 85 108 97 105 94 91 82 60 61 57 55 45 35 53 42 33 24 14 6 -1 -10 -22 -7 9 5 17 40 -10 12 -4 2 14 33 65 53 96 23 19 -37 12 56 3 25
56 59 66 94 106 101 95 96 104 95 85 62 58 57 58 43 30 39 49 17 36 2 -13 -21 -31 -31 0 -15 9 11 -2 16 1 24 3 31 62 60 56 42 16 8 60 43 33 18 -5
59 64 72 70 119 86 104 86 104 97 80 64 60 55 55 38 30 58 49 20 12 10 -15 -15 -45 -12 21 48 -27 -10 5 -9 2 26 23 64 76 106 26 34 32 28 -9 5 59 29 -27
63 55 78 87 89 111 108 81 102 104 80 70 64 57 45 36 37 49 6 -9 23 32 -29 55 31 -26 -3 21 28 6 -14 6 5 58 18 73 16 -1 41 37 54 20 5 51 18 4 42
104 88 80 90 84 128 106 86 93 110 81 73 71 56 42 47 61 23 -11 -31 15 47 -13 2 -10 -29 -11 -5 48 15 23 -10 26 1 14 74 86 13 52 11 3 11 13 28 15 28 29
144 121 106 95 111 124 98 96 94 109 83 71 71 57 47 93 37 4 -27 -27 -13 -5 14 50 3 2 13 35 54 68 47 42 9 34 63 0 78 75 27 53 23 -1 35 -12 5 55 34
187 153 147 117 129 151 110 88 111 102 89 74 72 64 68 -7 104 46 1 -5 13 -24 66 61 33 48 24 23 40 53 48 16 -1 24 49 31 -20 -11 -16 32 19 72 11 12 0 22 -4
209 154 127 124 137 149 117 101 122 98 94 83 75 66 60 44 -12 56 13 34 3 17 57 44 24 17 -1 4 45 70 44 49 53 -3 7 57 34 57 59 38 32 28 24 3 8 11 -1
214 184 119 103 117 135 129 77 107 87 102 92 84 66 62 28 70 17 11 8 93 3 30 39 14 7 -5 15 -19 30 33 30 6 -5 33 12 9 40 35 32 39 1 -7 5 -13 9 -5
359 192 174 95 107 122 144 90 93 110 112 102 91 66 39 35 70 90 -8 49 71 -22 -2 26 4 -5 -13 28 6 15 21 2 28 27 7 17 9 66 63 0 16 -21 28 3 28 13 14
234 252 150 153 90 119 153 73 70 131 132 125 108 80 50 5 69 134 55 107 -21 -22 7 29 -7 -3 -7 26 39 2 11 17 -18 15 1 -2 70 57 36 17 25 7 -3 57 48 46 22
180 208 161 119 109 125 171 95 79 135 151 129 144 103 20 22 32 101 91 14 -37 10 25 25 2 5 2 4 12 -3 -15 15 50 50 49 32 43 15 47 19 23 28 77 28 37 36 6
88 132 133 121 140 82 187 95 71 166 149 86 145 169 56 22 74 163 41 -11 -51 47 53 40 13 14 18 5 0 2 3 57 51 36 56 34 17 1 33 -13 2 34 9 38 74 69 17
36 131 176 71 67 102 192 15 18 228 145 163 180 235 85 111 201 130 -14 -56 9 37 47 74 92 26 30 14 5 12 8 26 79 73 6 54 37 15 -15 93 63 82 32 21 8 10 44
44 17 180 83 72 55 124 -53 55 239 174 261 222 240 143 144 188 138 18 -58 35 65 50 50 53 52 36 29 29 28 34 146 97 74 99 81 41 32 28 38 35 20 8 15 42 69 21
59 115 75 94 76 42 120 10 83 253 130 227 259 258 246 255 144 93 -23 -57 16 92 90 53 44 56 49 61 73 70 77 89 97 101 111 99 37 49 4 36 64 17 -10 20 9 8 -15
30 127 122 90 77 10 148 34 58 236 101 245 210 244 251 284 167 100 2 20 29 73 104 49 53 31 40 54 60 68 50 51 55 60 64 72 39 8 22 45 45 37 28 3 -9 21 -21
41 52 65 84 40 43 94 21 87 123 108 200 279 189 173 134 142 131 19 -53 44 59 58 61 57 16 10 39 32 26 35 41 41 33 39 54 44 67 35 16 14 17 1 -16 -10 4 1
23 1 54 57 65 -13 0 58 186 134 164 232 145 97 158 142 153 137 44 -3 38 59 131 96 34 56 32 108 122 121 140 115 98 47 38 50 59 37 26 56 45 2 -1 5 8 13 37
23 5 42 43 34 -83 10 16 171 135 150 250 218 175 179 215 169 105 52 90 58 69 87 113 88 62 100 101 136 149 136 114 99 125 76 58 61 62 42 39 34 57 79 74 63 30 28
44 55 43 59 -28 -75 -131 185 240 105 99 209 138 162 138 296 166 82 78 122 78 103 85 101 156 114 40 81 102 62 48 50 57 80 72 68 76 71 64 36 55 36 92 74 79 77 163
67 69 44 14 -71 -94 -6 306 131 93 42 30 288 147 116 243 171 107 88 127 151 148 158 149 111 127 104 93 91 24 11 10 14 23 75 87 102 83 89 55 23 124 112 95 92 76 229
39 33 -10 -28 0 -13 136 212 106 92 86 90 153 148 90 156 105 99 116 148 121 123 155 155 99 104 119 104 98 52 26 55 14 15 19 62 81 65 66 76 71 131 103 90 102 228 160
-10 16 18 100 2 173 265 151 99 91 88 172 256 187 135 140 210 141 93 110 110 124 137 133 137 129 111 92 83 61 59 43 45 41 36 47 63 74 100 100 77 126 115 149 176 99 123
25 65 88 119 274 148 134 116 99 45 52 210 251 251 184 131 183 198 209 193 186 137 108 105 96 92 79 79 118 95 91 87 76 42 71 68 79 104 92 114 137 84 106 115 111 109 111

GFSGBSN_con_3kmhel_024.txt.gz
Helicity
96 108 120 121 67 76 72 73 70 61 49 46 41 49 42 43 38 40 38 46 56 56 37 33 18 8 14 24 5 39 54 47 28 -6 29 50 27 12 28 23 2 7 46 15 40 -26 36
61 68 92 115 110 66 70 79 82 70 60 53 47 49 48 41 42 34 39 39 54 46 28 30 16 20 10 26 21 49 50 49 18 5 59 46 32 15 26 44 -4 7 42 32 26 73 4
45 47 54 73 115 94 68 80 88 80 63 58 48 48 49 48 48 38 36 35 46 29 28 22 9 8 -0 -11 23 46 41 15 21 48 41 15 33 40 27 46 53 30 49 24 22 23 -15
47 44 48 64 74 93 75 87 86 84 73 64 52 54 49 50 42 40 34 30 34 29 23 12 -2 -7 1 -10 -9 61 55 20 25 19 66 58 74 54 71 67 29 30 32 34 8 40 42
57 62 54 53 66 82 82 75 80 83 78 68 58 51 48 49 40 34 31 26 30 25 18 3 6 1 16 -2 4 52 34 23 37 31 12 12 10 73 110 88 35 18 45 49 3 50 12
67 59 62 65 67 67 69 64 80 83 85 69 58 49 48 44 39 29 26 21 27 13 20 13 8 -10 10 17 31 -6 21 22 13 30 -2 9 14 85 53 29 11 14 44 7 -3 14 12
77 69 70 73 69 73 84 67 58 87 94 71 61 47 49 44 35 33 37 24 51 30 15 7 40 -15 14 -18 -1 -16 34 24 5 34 38 -1 43 37 146 48 30 44 28 34 30 31 -12
122 90 71 65 72 80 92 84 62 92 88 75 68 54 53 38 37 40 27 29 89 57 2 80 -4 -43 35 -34 -30 5 40 11 -6 -51 153 -4 27 49 28 82 38 59 51 43 41 28 -48
140 128 95 74 61 77 80 93 78 104 97 74 70 66 55 42 48 51 21 -20 25 60 24 7 31 -20 8 19 -18 10 11 11 13 -30 10 72 50 43 67 6 37 69 27 12 19 11 -31
129 139 139 99 86 87 84 78 98 93 112 92 72 69 54 72 65 29 27 13 19 -6 60 62 72 -11 -8 -14 -26 33 30 115 23 13 118 65 149 216 10 42 -5 45 126 32 23 23 8
176 171 154 140 121 114 118 107 117 88 117 100 90 74 68 38 117 72 156 13 13 7 122 70 56 14 27 -8 -13 39 43 43 7 31 61 84 35 42 47 36 103 -3 59 8 -13 1 -3
210 205 172 167 126 135 142 149 143 112 124 116 101 81 81 70 16 106 141 99 10 119 98 54 50 61 -13 1 6 29 35 31 26 52 17 43 38 31 129 -3 3 6 -11 25 27 26 92
202 256 193 191 194 147 151 157 167 139 116 123 109 93 99 55 118 63 44 67 139 175 -5 41 33 15 1 11 -17 7 31 11 14 -19 -22 58 1 13 -0 -25 10 -1 -19 -7 66 14 9
242 287 215 172 184 167 156 162 166 158 127 134 113 101 88 47 133 133 87 107 155 54 -30 11 23 10 5 26 -9 -26 -1 4 14 25 6 19 8 -10 32 -31 51 65 3 30 8 6 52
187 259 233 274 197 170 160 169 171 165 166 151 158 121 105 29 73 177 123 121 163 -7 12 -11 21 3 -11 25 -1 7 -25 30 -13 -10 36 32 52 189 65 13 16 1 39 17 -37 -59 1
72 144 177 237 292 168 132 185 179 154 149 183 177 129 59 35 65 151 151 68 76 -93 22 51 -7 -3 2 17 15 27 12 16 35 93 146 43 5 11 1 13 -1 29 47 30 29 12 13
10 61 58 175 402 188 147 171 184 161 125 151 173 238 41 46 110 209 137 49 10 -21 7 3 -17 4 -25 38 18 16 5 17 53 -1 63 31 81 29 60 -9 8 18 2 31 37 38 50
20 90 76 10 272 200 181 166 203 125 77 199 214 304 106 193 232 177 139 28 -21 6 36 58 70 16 16 12 25 7 32 -6 14 4 31 27 65 67 -4 17 72 83 64 18 74 48 83
67 67 64 22 171 183 140 166 179 90 46 308 335 263 117 157 218 217 112 21 -23 79 32 -1 72 79 35 42 46 32 35 124 147 62 75 61 57 8 15 16 19 26 21 40 56 123 61
-14 64 51 67 53 219 94 130 134 58 42 297 327 353 232 206 177 178 87 70 49 76 66 24 35 44 43 35 30 31 43 108 96 135 128 119 63 16 9 2 57 31 -11 15 17 101 49
20 50 66 59 54 183 102 72 120 2 34 260 349 321 282 257 229 183 91 105 49 1 57 28 14 25 51 64 32 71 50 123 103 111 107 113 59 53 52 35 29 73 82 17 -0 26 -26
24 46 68 28 72 148 84 76 62 -15 61 256 401 343 174 160 240 206 105 50 43 13 58 65 65 43 20 41 38 51 24 113 67 50 55 60 80 82 44 43 53 17 47 34 30 26 -10
38 16 53 76 66 122 74 65 96 11 109 284 281 263 140 164 178 187 108 96 61 49 18 16 22 13 -7 75 135 152 155 80 41 70 49 85 79 67 46 78 76 18 4 -8 -3 9 23
7 31 5 50 49 78 72 22 36 64 216 238 208 204 125 158 171 153 118 93 64 31 57 97 46 38 134 132 180 168 147 154 162 163 73 106 78 80 64 55 18 -4 77 75 72 66 56
35 59 38 58 93 80 62 38 -2 120 195 144 82 139 126 141 150 121 80 47 42 47 72 114 147 123 77 104 122 109 113 114 89 86 116 64 95 85 63 42 37 37 63 83 73 85 198
15 13 30 62 74 110 61 11 5 66 232 -77 141 51 155 171 149 63 95 62 95 147 215 309 143 126 143 136 112 64 49 34 39 35 102 107 132 86 64 59 24 73 109 93 77 83 219
16 34 36 58 77 74 42 -24 52 29 104 -155 -40 4 213 147 97 63 136 122 81 194 186 191 213 212 198 122 95 64 52 35 44 34 32 63 91 74 79 53 53 104 124 78 95 183 157
52 59 75 81 74 78 31 -13 24 61 -75 -4 -47 10 157 428 110 79 70 118 122 108 233 189 219 198 160 103 89 90 80 61 56 27 29 38 52 54 100 82 36 121 109 132 182 117 128
69 75 85 61 65 37 35 222 52 -69 -104 -0 -23 198 115 30 245 232 246 242 160 89 180 129 148 107 92 88 112 104 100 109 109 60 30 62 61 72 79 81 115 103 174 130 160 132 114

GFSGBSN_con_3kmhel_027.txt.gz
Helicity
60 69 77 88 121 121 91 69 70 62 53 44 43 40 42 39 29 28 30 18 21 38 37 18 4 -10 2 37 44 32 69 62 30 -5 -17 27 48 40 81 55 60 -1 59 15 -41 133 31
37 40 47 49 66 104 115 83 82 72 61 55 51 43 41 42 31 28 36 21 19 35 30 13 -3 -19 27 51 24 23 56 42 22 -6 -2 109 59 5 51 42 21 -6 47 4 1 131 24
37 35 36 36 47 56 92 100 78 76 69 56 48 40 41 41 33 34 34 19 18 24 18 10 -5 -1 11 11 14 44 22 16 10 18 57 132 26 -6 -6 18 124 77 72 34 36 61 -25
47 42 37 39 41 49 67 83 74 75 76 67 50 42 40 44 35 36 31 18 18 19 10 9 -3 -4 29 5 39 23 78 73 112 107 45 42 46 -4 -3 62 84 33 73 50 42 40 -12
64 58 53 56 58 55 53 75 66 67 81 79 62 49 44 43 35 40 28 13 12 18 18 10 10 12 11 38 -2 11 18 76 124 61 9 32 -33 12 50 63 68 5 20 36 17 49 25
84 69 65 58 64 63 60 69 66 52 76 81 73 54 51 44 41 37 25 10 25 21 20 7 4 -12 -21 8 -2 40 53 21 31 27 14 -4 4 53 39 66 34 16 84 71 46 38 86
82 95 81 77 75 77 69 65 70 54 56 75 71 52 48 46 47 34 35 36 80 72 43 51 50 20 21 -18 7 -1 22 44 11 30 12 65 45 42 28 32 -2 -0 52 64 54 12 75
94 99 113 85 75 80 78 77 77 79 54 67 72 54 45 47 51 36 41 44 84 84 9 79 55 -0 35 16 -12 -29 9 24 -21 -33 -11 58 52 16 40 20 88 127 50 145 35 5 24
95 113 117 125 85 74 85 80 84 96 70 66 74 64 52 46 53 55 59 41 26 56 41 23 44 3 -13 4 -23 -11 50 29 53 10 -5 17 39 30 109 29 34 1 20 -24 49 12 -3
116 129 118 124 118 81 82 93 91 91 90 76 81 73 60 87 71 62 111 77 37 39 84 47 89 16 -15 -10 5 15 -20 87 63 -48 12 -36 33 1 74 106 29 27 34 49 26 9 -30
96 132 136 134 141 119 102 116 120 114 108 100 111 90 69 79 104 117 156 213 32 39 113 26 95 7 18 19 -41 -8 68 127 -5 32 -14 39 1 47 85 160 23 -11 3 11 -11 11 -7
86 132 161 169 154 158 119 111 143 139 136 130 154 111 89 95 38 72 175 233 73 146 85 73 65 62 13 12 -29 3 46 51 -0 111 43 63 25 6 9 34 25 60 32 20 30 25 12
169 129 149 205 209 161 168 128 135 160 153 144 182 149 131 85 78 170 141 87 184 184 51 72 158 117 11 42 -29 -47 23 21 47 10 -21 37 56 1 -4 26 7 45 -2 63 70 73 -13
140 134 133 178 224 188 174 151 137 164 180 158 184 183 120 84 98 163 170 192 194 84 32 27 111 78 26 -31 -5 -28 69 1 14 11 32 45 55 46 59 -7 17 11 13 56 47 -6 -2
90 84 138 117 210 262 167 187 157 179 202 185 213 229 189 62 77 139 219 209 217 85 -9 36 38 54 10 -18 61 -73 -40 27 19 37 61 88 45 54 76 89 39 -6 36 54 84 18 25
130 77 114 128 147 242 207 149 172 192 228 225 337 289 165 79 137 158 225 234 193 -26 30 -13 2 75 17 -43 52 65 -21 -9 -14 43 126 64 55 22 98 41 47 20 19 58 68 44 21
51 65 54 65 98 194 192 118 174 200 244 228 372 281 105 123 225 197 179 242 80 -85 27 73 -18 61 -1 -23 79 21 63 24 55 47 174 83 69 -0 -85 -11 10 21 55 56 65 73 36
59 66 55 44 53 65 147 175 150 186 250 272 415 289 105 263 360 228 144 242 44 34 11 58 22 37 -18 -8 10 38 24 101 56 123 119 40 61 46 -59 47 43 34 20 42 80 50 76
44 27 43 45 -8 -15 102 178 128 180 213 424 423 343 174 221 253 160 193 128 22 61 158 122 27 -2 2 33 111 34 61 151 226 189 141 109 120 93 68 66 61 21 52 48 56 124 87
39 9 10 21 -84 64 29 194 69 121 164 359 544 416 319 238 176 152 209 93 -0 -42 144 168 57 65 70 52 36 53 99 124 203 171 134 130 104 89 61 26 31 40 47 54 75 126 73
36 17 -26 -35 32 77 -62 223 96 59 112 266 605 410 380 275 194 193 152 103 42 13 36 56 101 18 87 82 73 73 150 133 109 105 115 118 102 119 79 58 55 53 36 30 9 29 116
22 4 -36 -40 57 73 -141 183 122 84 71 171 541 439 408 264 245 311 198 80 20 26 139 109 64 10 121 68 89 92 128 112 91 116 127 135 125 130 84 70 50 71 64 54 38 32 23
4 9 13 -24 47 77 39 117 219 91 103 126 308 425 267 299 168 286 223 113 79 76 124 89 105 68 88 70 86 137 113 108 99 101 116 114 117 120 74 85 82 50 24 44 56 41 28
14 40 56 47 23 82 65 135 172 80 94 217 257 360 261 220 208 165 207 132 84 93 130 99 72 81 111 214 281 368 404 279 211 204 79 164 127 102 64 90 74 18 53 50 52 114 137
31 35 53 57 54 75 35 110 116 106 83 91 122 233 290 222 197 115 184 144 112 36 93 31 142 88 154 242 211 198 232 199 173 165 188 123 138 112 84 85 52 47 87 69 70 130 156
41 42 37 30 43 33 48 93 107 101 36 100 32 391 104 184 146 143 103 144 90 81 144 224 309 348 320 198 202 153 118 90 103 164 262 206 161 119 110 85 33 37 69 96 109 135 142
17 24 10 25 67 48 76 101 100 65 30 110 -91 207 164 147 120 144 165 128 80 147 202 263 356 255 289 283 226 155 109 73 94 78 61 112 135 100 106 74 56 63 95 83 116 89 174
14 52 39 30 90 47 89 85 63 43 -20 71 -57 234 204 176 112 96 144 95 95 187 301 222 388 215 260 266 204 150 92 89 100 62 46 65 80 67 111 85 35 85 124 114 98 174 135
65 27 14 30 103 76 80 71 74 44 47 61 -117 2 -12 248 278 273 99 186 129 161 340 309 278 162 216 289 205 163 128 147 131 79 64 77 58 52 68 49 35 102 127 136 166 177 193

GFSGBSN_con_3kmhel_033.txt.gz
Helicity
52 55 61 74 80 76 90 98 105 99 66 57 55 57 55 52 49 52 49 48 34 31 24 17 7 -3 11 39 41 29 33 60 34 -2 -10 2 18 52 78 116 69 83 102 25 -6 24 8
50 48 45 51 50 51 55 70 83 99 98 72 67 64 57 58 56 55 52 49 36 26 19 18 14 -4 26 42 8 17 40 31 -0 -18 -17 3 10 13 89 114 79 41 47 9 -5 -3 -1
53 55 45 36 39 41 43 46 64 71 85 87 74 67 62 59 59 54 50 50 33 23 17 22 17 6 33 31 1 -14 17 20 -9 -21 -27 -8 -2 52 79 137 18 21 27 30 20 -29 -21
72 63 52 46 34 37 43 39 41 51 61 63 65 60 57 55 62 62 56 52 36 27 15 23 28 12 32 15 -51 -82 7 -13 9 16 -17 34 31 43 21 63 64 32 28 51 -21 -24 -34
83 90 74 55 53 33 34 35 33 44 41 58 45 46 56 52 56 64 64 64 42 23 17 26 39 30 28 -37 -38 -48 25 -5 -1 32 -1 9 12 32 38 52 70 77 37 36 -1 -18 5
89 94 82 81 60 58 34 46 68 74 41 49 31 25 36 51 43 63 75 77 37 41 54 50 42 35 23 54 -19 -95 -31 18 -6 -7 -13 27 30 26 53 60 77 65 53 87 33 18 33
92 95 98 93 89 58 61 37 41 75 103 77 49 52 30 50 50 57 64 55 61 60 66 62 54 33 66 27 -60 -48 -26 19 -4 9 -10 2 41 61 58 43 61 65 41 53 89 21 -41
91 89 99 110 97 88 60 66 60 56 67 59 53 39 58 57 58 57 46 86 67 71 39 25 37 -23 -35 26 -28 -43 -10 -1 3 2 -20 21 19 53 68 -5 28 83 93 109 81 44 32
176 137 101 101 120 105 82 85 72 80 81 68 65 33 38 72 50 59 89 63 50 38 33 33 63 26 10 67 -6 -20 -4 14 15 6 15 -6 8 7 17 7 35 66 97 106 97 69 72
141 172 138 111 112 118 129 95 96 80 85 87 81 58 57 94 72 81 77 71 80 41 60 40 62 33 99 56 -8 -36 -44 21 -7 33 43 22 36 26 -2 56 55 123 42 71 57 25 38
100 142 163 126 109 127 130 135 108 101 96 111 96 80 81 99 82 92 106 148 85 69 75 49 74 70 117 119 31 7 -34 7 -8 18 52 21 -1 9 9 28 3 59 63 62 36 18 49
68 75 102 146 123 118 142 136 153 131 111 125 124 107 102 105 38 76 122 138 99 142 70 81 72 87 159 41 24 56 -15 40 36 53 30 32 2 32 41 10 -16 17 57 60 50 59 31
95 68 55 86 176 129 110 164 154 171 160 145 150 131 154 118 49 61 101 153 160 137 115 103 87 97 111 88 -35 7 21 25 -12 8 -55 47 30 23 42 63 48 35 70 48 55 73 -18
136 95 70 16 121 148 132 104 194 173 180 186 188 172 132 113 80 131 143 186 118 80 101 127 65 111 65 88 22 -8 26 -39 -43 5 9 -10 24 14 64 25 42 37 51 85 22 39 31
175 139 95 69 -2 116 141 100 132 183 174 185 236 239 186 115 96 153 206 177 126 174 59 139 126 144 54 27 53 48 33 -43 -61 1 1 29 62 41 35 47 35 45 53 35 83 86 60
144 158 142 89 59 23 107 139 96 170 207 216 310 311 227 128 137 215 212 137 188 127 152 187 140 102 75 34 59 82 68 13 -21 28 86 24 36 46 54 53 49 45 52 83 97 74 64
132 163 153 111 75 -4 82 152 145 169 222 239 327 416 227 185 228 297 230 201 194 105 117 224 260 129 50 60 55 63 39 -8 10 3 64 96 74 42 57 59 84 130 147 117 92 91 55
96 179 141 141 77 -17 101 177 114 114 183 325 421 442 276 333 363 302 184 268 269 60 63 150 175 190 71 22 38 -0 -42 -24 62 107 60 71 84 75 63 67 49 106 86 93 102 70 97
85 260 163 134 111 42 229 189 129 91 193 432 501 526 156 314 386 221 271 219 180 123 42 60 140 146 141 18 34 29 -10 15 50 112 90 91 92 113 98 80 97 40 42 76 98 115 91
133 283 226 144 134 105 267 212 116 60 135 443 608 654 408 293 241 227 272 209 153 75 97 108 103 156 157 82 68 52 57 116 79 37 88 227 146 102 100 61 89 92 70 83 131 121 73
127 282 265 188 156 217 205 140 154 120 67 331 570 577 541 476 160 269 245 236 137 108 42 102 84 103 180 163 122 112 157 153 96 105 138 170 127 125 94 91 101 87 82 120 122 104 121
117 347 266 195 157 188 144 121 131 96 88 213 561 642 455 495 301 291 262 187 118 119 92 155 80 45 115 140 148 99 127 127 107 117 158 211 152 157 121 161 174 128 104 105 137 131 99
111 416 290 208 173 224 177 109 140 118 153 160 351 412 531 387 196 301 75 235 142 131 125 147 110 125 127 117 125 93 90 119 136 160 207 197 206 185 125 179 170 109 121 137 111 160 137
323 343 263 192 150 174 181 122 172 134 143 203 314 363 490 268 248 112 180 257 130 76 160 90 121 109 53 25 94 166 206 206 241 295 195 213 240 214 151 204 165 105 125 78 113 145 154
368 280 248 171 163 164 151 94 101 47 -7 137 199 269 425 271 146 125 123 160 131 60 40 93 131 107 92 141 200 272 321 274 290 308 231 206 220 203 206 203 161 122 95 109 120 113 150
338 318 176 156 177 181 143 112 101 21 -201 60 252 48 276 474 159 131 67 115 124 67 88 47 65 79 169 169 207 234 274 224 254 281 238 280 247 197 217 221 157 84 92 163 131 126 101
304 181 151 143 150 142 133 123 86 -60 -32 104 154 85 239 312 190 66 161 74 126 114 85 114 105 115 203 238 242 264 282 238 257 225 244 292 272 218 247 206 179 120 104 154 176 63 192
162 148 128 103 98 107 114 58 -60 65 -65 103 69 125 217 261 249 159 220 183 137 116 143 105 164 165 251 238 197 228 224 278 280 222 220 233 241 229 265 234 125 130 213 175 88 162 141
99 72 56 74 73 48 50 11 20 59 -87 117 43 145 40 168 249 255 194 205 137 120 179 134 161 125 179 224 231 197 261 313 287 232 241 191 183 183 151 110 117 60 84 116 78 79 94

GFSGBSN_con_3kmhel_036.txt.gz
Helicity
69 70 76 74 76 79 88 90 88 91 97 84 65 62 52 49 49 50 49 53 53 43 33 20 14 15 30 48 29 21 49 66 29 9 -15 11 7 8 23 22 17 12 57 21 2 13 14
65 58 55 72 58 60 60 67 79 78 82 95 86 64 64 61 59 57 54 55 56 39 31 20 16 13 44 57 26 22 44 56 17 -10 -7 18 14 12 11 65 31 42 17 -0 4 -2 -11
59 63 62 44 57 51 51 48 55 67 75 78 90 74 66 68 66 67 62 64 54 39 28 18 18 14 56 43 23 -4 17 36 13 -0 -9 -2 5 -13 38 83 34 30 11 28 -6 -24 -22
82 70 55 64 52 50 49 47 45 49 57 64 64 75 66 66 68 72 68 64 51 44 33 22 26 22 37 -5 -53 -84 -8 -13 10 -0 -17 -17 13 -12 -13 66 39 28 29 22 6 -3 -24
89 82 84 67 69 58 53 48 43 39 40 53 46 50 58 60 65 67 78 71 61 34 35 45 50 44 32 5 -26 -50 -0 -9 2 11 6 -35 8 -14 47 66 58 66 44 43 41 -11 7
158 110 92 88 85 70 63 52 52 44 46 41 44 43 37 34 36 48 73 81 42 43 51 58 75 66 36 75 51 -29 -55 -20 -4 -0 18 2 13 -9 44 61 33 48 44 39 27 14 13
126 148 142 95 98 92 74 66 52 59 57 57 52 48 51 48 41 26 76 64 62 60 71 64 67 60 74 76 -11 -18 -29 2 -2 6 -0 -7 19 -10 10 -1 39 34 28 13 20 5 -7
98 122 148 165 88 106 101 78 65 66 64 80 91 106 83 77 51 87 75 101 79 65 39 38 39 23 23 27 11 12 5 50 27 6 -10 -29 -8 16 43 31 27 27 21 37 56 7 -34
100 116 115 146 164 99 110 103 89 79 72 79 100 101 119 94 107 112 102 91 84 61 24 5 78 61 55 70 1 7 35 36 38 -3 -8 7 -6 23 25 39 17 45 67 69 27 26 7
91 118 139 112 131 165 107 120 111 86 86 78 95 101 115 85 65 72 97 78 45 48 8 -14 53 53 126 93 23 6 4 58 35 -6 -0 -19 24 12 21 2 15 97 53 41 52 31 15
79 81 110 135 109 134 154 109 117 122 86 106 100 116 124 99 105 109 115 88 51 61 79 42 85 94 122 163 56 49 18 81 37 10 7 -11 2 -3 -3 26 19 78 14 34 39 38 43
96 92 85 80 106 104 116 145 118 121 125 123 117 144 147 132 89 57 83 135 76 169 100 76 62 111 164 95 72 114 84 74 -6 12 -5 -5 18 24 -11 16 4 35 41 67 71 66 53
105 123 123 99 73 73 90 133 117 103 139 127 145 163 152 150 89 47 5 114 156 152 133 63 61 88 103 107 81 109 160 86 36 -7 -33 -42 -1 39 35 55 24 35 55 46 71 99 23
101 105 147 142 113 76 61 81 156 105 136 151 167 193 167 147 111 128 57 212 152 57 132 65 118 117 74 135 3 97 171 89 11 -2 26 -15 -55 5 28 18 38 49 61 76 60 62 43
113 102 117 153 140 114 71 22 130 102 129 189 206 225 214 162 121 152 201 207 154 177 89 129 97 139 121 96 103 100 97 75 25 13 -5 -22 -45 35 45 61 62 60 53 46 84 80 70
98 104 94 137 158 127 94 49 33 104 126 183 278 250 201 185 144 242 254 150 217 189 192 98 135 139 109 95 145 130 105 47 -7 -21 -17 -6 -19 52 58 39 42 64 47 87 90 51 45
127 99 87 106 197 157 115 75 -9 65 133 104 293 304 170 238 235 305 259 246 177 216 119 155 165 186 103 127 97 132 103 53 1 -0 17 37 18 -23 49 64 78 92 94 127 110 126 39
98 106 102 104 204 189 141 95 6 81 199 123 416 347 156 302 405 289 187 305 207 90 100 144 140 175 132 101 151 107 102 44 42 100 57 35 45 -42 7 48 36 47 80 135 154 133 138
96 89 112 92 157 229 165 105 54 100 173 300 423 444 136 265 451 186 264 201 243 148 98 66 119 147 163 107 141 96 62 48 44 92 61 79 58 -7 -38 72 101 86 61 104 155 138 97
73 94 83 79 172 262 176 110 97 142 128 315 472 542 451 260 263 265 286 216 195 206 154 109 109 122 177 170 106 57 47 30 18 19 67 148 123 64 23 45 63 117 83 85 110 111 107
75 80 74 104 204 281 174 119 71 188 181 318 413 486 593 494 220 229 265 266 214 149 124 141 90 72 111 151 154 81 89 90 65 66 83 130 66 80 90 66 96 69 94 101 109 107 141
65 86 67 91 213 311 177 123 97 220 122 301 362 508 455 426 283 303 322 178 109 155 147 135 121 49 83 131 136 122 89 112 116 114 96 131 84 119 92 136 144 91 85 98 115 146 133
44 74 51 67 276 333 195 132 108 188 149 377 263 409 480 382 273 286 199 293 258 120 119 86 78 94 80 77 106 173 144 51 81 104 157 140 176 154 61 171 173 47 124 193 212 194 177
51 61 50 35 394 336 170 136 267 104 195 452 285 500 464 309 333 148 189 337 255 149 171 128 89 78 80 41 32 33 96 101 157 174 189 253 238 205 132 201 48 125 191 170 157 111 125
61 67 59 45 358 295 194 247 136 146 194 344 264 463 448 390 219 221 202 87 279 190 115 117 93 102 78 137 81 127 159 179 192 220 189 202 249 225 162 128 158 148 182 161 139 79 104
67 75 25 211 400 233 236 243 137 171 116 220 226 199 435 455 251 203 207 156 142 162 132 89 129 41 105 162 154 158 163 213 213 262 186 207 214 208 220 166 114 94 144 189 208 152 149
36 27 74 406 282 166 198 208 117 85 130 258 217 47 210 211 289 199 189 168 208 154 154 83 82 73 128 225 181 184 188 199 240 268 240 288 297 253 272 179 163 121 166 225 246 142 186
2 72 312 385 178 162 189 164 111 104 146 270 182 61 106 -13 233 264 172 220 231 117 108 95 98 102 161 219 236 190 194 196 229 254 316 316 309 265 273 241 132 187 287 273 127 84 153
376 450 269 151 142 175 196 120 98 118 150 192 126 110 75 46 132 78 149 176 143 183 167 140 107 99 163 168 267 257 265 283 292 270 323 281 247 246 198 157 166 144 122 130 97 95 93